Regional Weather Roundup
Issued by NWS

Home | Current Version | Previous Version | Graphics & Text | Print | Product List | Glossary On
Versions: 1 2 3 4 5 6 7 8 9 10 11 12 13 14 15 16 17 18 19 20 21 22 23 24 25 26 27 28 29 30 31 32 33 34 35 36 37 38 39 40 41 42 43 44 45 46 47 48 49 50
669
ASUS43 KMKX 141659
RWRWI

WISCONSIN REGIONAL WEATHER ROUNDUP
NATIONAL WEATHER SERVICE MILWAUKEE/SULLIVAN WI
1100 AM CST THU DEC 14 2017

NOTE: "FAIR" INDICATES FEW OR NO CLOUDS BELOW 12,000 FEET WITH NO
SIGNIFICANT WEATHER AND/OR OBSTRUCTIONS TO VISIBILITY.

WIZ001-002-006>008-014>016-023>028-141800-
NORTHWEST WISCONSIN

CITY           SKY/WX    TMP DP  RH WIND       PRES   REMARKS
SUPERIOR ARPT  LGT SNOW  17  13  84 W7        30.02F WCI   8
ASHLAND        LGT SNOW  17  13  84 SW9       30.00F FOG     WCI   6
HAYWARD        CLOUDY    19  13  77 SW6       29.98F WCI  11
SIREN          CLOUDY    18  14  84 W9        30.02S WCI   7
CUMBERLAND     FLURRIES  18  16  93 SW5       29.99F WCI  11
RICE LAKE      FLURRIES  19  18  95 CALM      30.02S
CHETEK         CLOUDY    19  16  91 SW6       30.02S WCI  10
LADYSMITH      LGT SNOW  18  16  89 CALM      30.01S
EAU CLAIRE     NOT AVBL
MENOMONIE      MOSUNNY   21  19  90 SW3       30.04F
NEW RICHMOND   LGT SNOW  19  17  92 SW6       30.03F WCI  10
OSCEOLA        LGT SNOW  19  15  83 W5        30.07S WCI  12
$$

WIZ003>005-009-010-017-018-141800-
NORTH CENTRAL WISCONSIN

CITY           SKY/WX    TMP DP  RH WIND       PRES   REMARKS
MANITOWISH WTR LGT SNOW  13  10  90 W7        29.94S WCI   3
ARBOR VITAE    LGT SNOW  17  14  88 NW10G16   29.94S WCI   4
WOODRUFF       LGT SNOW  17  14  88 NW10G16   29.94S WCI   4
RHINELANDER    CLOUDY    15  12  88 W8        29.94F WCI   4
EAGLE RIVER    FLURRIES  14   9  80 W9        29.93S WCI   2
LAND O LAKES   FLURRIES  17  10  76 W3        29.93F
PHILLIPS       FLURRIES  12  11  95 SW3       29.97R
TOMAHAWK       LGT SNOW  14  11  89 CALM      29.97S
MEDFORD        LGT SNOW  13  11  91 SW3       29.98S
MERRILL        LGT SNOW  15  11  85 CALM      29.99S
$$

WIZ029-030-035-036-043>047-141800-
CENTRAL WISCONSIN

CITY           SKY/WX    TMP DP  RH WIND       PRES   REMARKS
WAUSAU         CLOUDY    15  11  83 NW5       29.98F WCI   8
MOSINEE        CLOUDY    14  12  92 W5        30.01S WCI   6
MARSHFIELD     CLOUDY    15  12  88 W7        30.00S WCI   5
STEVENS POINT  CLOUDY    13  12  98 S5        30.02F WCI   5
WAUPACA        SUNNY     19  15  84 CALM      30.05S
WAUTOMA        MOSUNNY   23  17  78 CALM      30.06S
WISC RAPIDS    MOSUNNY   15  10  80 SW5       30.05S WCI   8
CAMP DOUGLAS   MOSUNNY   23  12  63 S3        30.04F
$$

WIZ011>013-019>022-031-037>040-048>050-141800-
NORTHEAST WISCONSIN

CITY           SKY/WX    TMP DP  RH WIND       PRES   REMARKS
ANTIGO         CLOUDY    13  10  85 N7        29.96F WCI   3
SHAWANO        SUNNY     19  11  71 W5        30.04R WCI  12
OCONTO         SUNNY     13  10  90 W3        30.04S
STURGEON BAY   SUNNY     21  11  65 W9        30.02F WCI  11
GREEN BAY      SUNNY     15   9  76 CALM      30.05S
MANITOWOC      SUNNY     23  12  62 W5        30.05F WCI  17
APPLETON       MOSUNNY   14   7  73 W5        30.02S WCI   6
CLINTONVILLE   NOT AVBL
OSHKOSH        SUNNY     16  10  77 W5        30.04F WCI   9
$$

WIZ032>034-041-042-053>061-141800-
SOUTHWEST WISCONSIN

CITY           SKY/WX    TMP DP  RH WIND       PRES   REMARKS
LA CROSSE      MOSUNNY   21  14  74 S7        30.08F WCI  12
SPARTA         CLOUDY    20  14  78 W5        30.07F WCI  14
VIROQUA        SUNNY     18  18 100 CALM      30.05S
BOSCOBEL       SUNNY     22  14  71 CALM      30.10F
PRAIRIE DU CHI SUNNY     21  15  78 CALM      30.10F
PLATTEVILLE    SUNNY     23  15  73 CALM      30.08F
$$

WIZ056-057-062-063-064-067-068-141800-
SOUTH CENTRAL WISCONSIN

CITY           SKY/WX    TMP DP  RH WIND       PRES   REMARKS
REEDSBURG      SUNNY     19  14  79 CALM      30.07R
BARABOO/DELLS  SUNNY     19  13  77 CALM      30.06S
LONE ROCK      NOT AVBL
MINERAL POINT  SUNNY     23  19  86 SW6       30.06F WCI  16
MADISON        MOSUNNY   22  11  62 CALM      30.07R
MIDDLETON      SUNNY     23  14  70 CALM      30.07S
WATERTOWN      SUNNY     18  12  78 CALM      30.07S
MONROE         SUNNY     21  14  73 W3        30.07R
JANESVILLE     PTSUNNY   23  14  68 CALM      30.08S
$$

WIZ051-052-058>065-066-070>072-141800-
SOUTHEAST WISCONSIN

CITY           SKY/WX    TMP DP  RH WIND       PRES   REMARKS
MILWAUKEE      MOSUNNY   22  10  60 W6        30.07S WCI  14
WAUKESHA       SUNNY     18  10  73 W3        30.07S
MILWAUKEE/TIMM NOT AVBL
RACINE         SUNNY     22  10  60 NW9       30.09S WCI  12
BURLINGTON     SUNNY     21  13  71 NW5       30.08R WCI  15
KENOSHA        SUNNY     22  11  62 NW7       30.07F WCI  13
FOND DU LAC    SUNNY     19   9  65 CALM      30.05F
SHEBOYGAN      SUNNY     16  10  77 NW5       30.04F WCI   9
WEST BEND      SUNNY     18  10  73 W6        30.05S WCI   9
JUNEAU         SUNNY     14  10  85 CALM      30.07S
$$

LSZ147-162-141800-
LAKE SUPERIOR

STATION/POSITION TIME  TEMP    WIND        PRES    WAVE
                       AIR SEA DIR/SP/G            HT/PER
                 (UTC) (F)     (DEG/KT/KT) (MB)    (FT/S)
DEVILS ISLAND    1600   20     320/  7/ 12 1017.0R
SAXON HARBOR     1630   18                 1015.9R
$$

LMZ867-665-643>646-141800-
LAKE MICHIGAN

STATION/POSITION TIME  TEMP    WIND        PRES    WAVE
                       AIR SEA DIR/SP/G            HT/PER
                 (UTC) (F)     (DEG/KT/KT) (MB)    (FT/S)
NORTHPORT PIER   1640   21     290/  7/ 14 1015.9F
KEWAUNEE LAKESHO 1630   17     300/  3/  5 1016.7F
SHEBOYGAN LAKESH 1600   15     280/  8/  9 1019.2R
PORT WASHINGTON  1630   19     290/  4/  7 1019.3F
MILWAUKEE LAKESH 1630   20     300/  6/  8   N/A
KENOSHA   LAKESH 1600   19     330/  7/  9 1018.6
$$

TC  - TEMPERATURE IN CELSIUS
VSB - VISIBILITY IN STATUTE MILES
WCI - WIND CHILL INDEX
HX  - HEAT INDEX





USA.gov is the U.S. government's official web portal to all federal, state and local government web resources and services.